Location: LDNL
(36.4545°S, 141.6685°E)
Time: 21:49:25
(UTC+11:00)

deb Explorer IX - All Passes

Search period start: 19 January 2022 00:00
Search period end: 29 January 2022 00:00
Orbit: 544 x 1082 km, 38.8° (Epoch: 18 January)

Date Brightness Start Highest point End Pass type
(mag) Time Alt. Az. Time Alt. Az. Time Alt. Az.
19 Jan - 02:22:10 10° NNE 02:25:44 15° NE 02:29:22 10° ENE visible
19 Jan - 04:05:12 10° NW 04:12:00 48° NNE 04:18:50 10° E visible
19 Jan - 05:51:49 10° WNW 05:59:07 86° SSW 06:06:06 10° ESE visible
19 Jan - 07:39:30 10° W 07:46:42 74° S 07:53:11 10° E daylight
19 Jan - 09:27:09 10° WSW 09:33:59 72° NNW 09:39:54 10° ENE daylight
19 Jan - 11:15:23 10° W 11:20:17 24° NW 11:24:40 10° NNE daylight
20 Jan - 01:56:30 10° NNE 01:59:48 14° NE 02:03:11 10° ENE visible
20 Jan - 03:39:18 10° NW 03:46:00 47° NNE 03:52:51 10° E visible
20 Jan - 05:25:49 10° WNW 05:33:07 87° SSW 05:40:11 10° ESE visible
20 Jan - 07:13:27 10° W 07:20:42 74° S 07:27:21 10° E daylight
20 Jan - 09:01:04 10° WSW 09:08:02 73° NNW 09:14:09 10° ENE daylight
20 Jan - 10:49:15 10° W 10:54:25 25° NW 10:59:02 10° NNE daylight
21 Jan - 01:30:52 10° NNE 01:33:51 13° NE 01:36:55 10° ENE visible
21 Jan - 03:13:24 10° NW 03:19:59 46° NNE 03:26:51 10° E visible
21 Jan - 04:59:49 10° WNW 05:07:05 88° SSW 05:14:15 10° ESE visible
21 Jan - 06:47:24 10° W 06:54:41 74° S 07:01:29 10° E daylight
21 Jan - 08:34:59 10° WSW 08:42:04 75° NNW 08:48:21 10° ENE daylight
21 Jan - 10:23:06 10° W 10:28:31 27° NW 10:33:23 10° NNE daylight
22 Jan - 01:05:17 10° NNE 01:07:54 12° NE 01:10:35 10° ENE visible
22 Jan - 02:47:30 10° NW 02:53:58 45° NNE 03:00:48 10° E visible
22 Jan - 04:33:50 10° WNW 04:41:01 88° SSW 04:48:16 10° ESE visible
22 Jan - 06:21:20 10° W 06:28:38 74° S 06:35:34 10° E daylight
22 Jan - 08:08:54 10° WSW 08:16:04 76° NNW 08:22:32 10° ENE daylight
22 Jan - 09:56:57 10° W 10:02:35 28° NW 10:07:40 10° NNE daylight
23 Jan - 00:39:49 10° NNE 00:41:57 12° NE 00:44:08 10° ENE night (unlit)
23 Jan - 02:21:38 10° NW 02:27:56 43° NNE 02:34:43 10° E visible
23 Jan - 04:07:51 10° WNW 04:14:57 89° SSW 04:22:15 10° ESE visible
23 Jan - 05:55:17 10° W 06:02:34 74° S 06:09:37 10° E visible
23 Jan - 07:42:48 10° WSW 07:50:02 77° NNW 07:56:39 10° ENE daylight
23 Jan - 09:30:47 10° W 09:36:38 29° NW 09:41:54 10° NNE daylight
24 Jan - 00:14:31 10° NNE 00:15:59 11° NE 00:17:29 10° ENE night (unlit)
24 Jan - 01:55:45 10° NW 02:01:53 42° NNE 02:08:35 10° E visible
24 Jan - 03:41:52 10° WNW 03:48:52 90° SSW 03:56:11 10° ESE visible
24 Jan - 05:29:13 10° W 05:36:28 74° S 05:43:37 10° E visible
24 Jan - 07:16:41 10° WSW 07:23:58 78° NNW 07:30:44 10° ENE daylight
24 Jan - 09:04:36 10° W 09:10:37 31° NW 09:16:07 10° NNE daylight
25 Jan - 01:29:53 10° NW 01:35:51 41° NNE 01:42:26 10° E visible
25 Jan - 03:15:54 10° WNW 03:22:46 89° NNE 03:30:06 10° ESE visible
25 Jan - 05:03:11 10° W 05:10:22 74° S 05:17:34 10° E visible
25 Jan - 06:50:35 10° WSW 06:57:52 79° NNW 07:04:47 10° ENE daylight
25 Jan - 08:38:26 10° W 08:44:35 32° NW 08:50:17 10° NNE daylight
26 Jan - 01:04:01 10° NNW 01:09:49 39° NNE 01:16:15 10° E visible
26 Jan - 02:49:56 10° WNW 02:56:40 89° NNE 03:03:57 10° ESE visible
26 Jan - 04:37:08 10° W 04:44:14 74° S 04:51:30 10° E visible
26 Jan - 06:24:28 10° WSW 06:31:46 80° NNW 06:38:46 10° ENE daylight
26 Jan - 08:12:15 10° W 08:18:31 33° NW 08:24:24 10° NNE daylight
27 Jan - 00:38:11 10° NNW 00:43:46 38° NE 00:50:02 10° E visible
27 Jan - 02:23:58 10° WNW 02:30:33 88° NNE 02:37:48 10° ESE visible
27 Jan - 04:11:06 10° W 04:18:05 74° S 04:25:23 10° E visible
27 Jan - 05:58:22 10° WSW 06:05:37 81° NNW 06:12:44 10° ENE visible
27 Jan - 07:46:04 10° W 07:52:26 34° NW 07:58:28 10° NNE daylight
28 Jan - 00:12:20 10° NNW 00:17:43 36° NE 00:23:49 10° E visible
28 Jan - 01:58:01 10° WNW 02:04:25 87° NNE 02:11:37 10° ESE visible
28 Jan - 03:45:04 10° W 03:51:56 73° S 03:59:13 10° E visible
28 Jan - 05:32:16 10° WSW 05:39:28 82° NNW 05:46:39 10° ENE visible
28 Jan - 07:19:53 10° W 07:26:19 35° NW 07:32:30 10° NNE daylight
28 Jan - 23:46:30 10° NNW 23:51:40 35° NE 23:57:33 10° E night (unlit)
